Moses Lake, WA

11:50 AM PDT on August 18, 2017 (GMT -0700)
Grant County International

Weather History for KMWH - April, 2013

Change the Weather History Date:

Sunday, April 7, 2013

  Actual Average Record
Temperature  
Mean Temperature 49 °F 48 °F  
Max Temperature 58 °F 61 °F 79 °F (2016)
Min Temperature 40 °F 36 °F 21 °F (2011)
Degree Days  
Heating Degree Days 16 17  
Month to date heating degree days 70 121  
Since 1 July heating degree days 4801 5293  
Cooling Degree Days 0 0  
Month to date cooling degree days 0 0  
Year to date cooling degree days 0 0  
Moisture  
Dew Point 37 °F    
Average Humidity 61    
Maximum Humidity 86    
Minimum Humidity 35    
Precipitation  
Precipitation 0.23 in 0.03 in 0.23 in (2013)
Month to date precipitation 0.31 0.18  
Year to date precipitation 1.33 2.90  
Sea Level Pressure  
Sea Level Pressure 29.62 in    
Wind  
Wind Speed 12 mph (SSW)    
Max Wind Speed 25 mph    
Max Gust Speed 32 mph    
Visibility 10 miles    
Events Rain    
T = Trace of Precipitation, MM = Missing Value Source: NWS Daily Summary

Daily Weather History Graph

Daily Weather History Graph

Search for Another Location

Airport or City:

Trip Planner

Search our weather history database for the weather conditions in past years. The results will help you decide how hot, cold, wet, or windy it might be!

Date:

Astronomy

Apr. 07, 2013 Rise Set
Actual Time 6:23 AM PDT 7:35 PM PDT
Civil Twilight 5:52 AM PDT 8:07 PM PDT
Nautical Twilight 5:14 AM PDT 8:45 PM PDT
Astronomical Twilight 4:34 AM PDT 9:25 PM PDT
Moon 4:53 AM PDT (4/7) 5:05 PM PDT (4/7)
Length of Visible Light 14h 14m
Length of Day
13h 11m
Waning Crescent, 7% of the Moon is Illuminated
Apr 7
Waning Crescent
Apr 10
New
Apr 18
First Quarter
Apr 25
Full
May 2
Last Quarter

Hourly Weather History & Observations

Time (PDT) Temp. Windchill Dew Point Humidity Pressure Visibility Wind Dir Wind Speed Gust Speed Precip Events Conditions
12:52 AM 48.9 °F - 34.0 °F 56% 29.78 in 10.0 mi SSE 9.2 mph - N/A   Overcast
1:52 AM 48.0 °F - 36.0 °F 63% 29.74 in 10.0 mi SSE 9.2 mph - N/A   Overcast
2:52 AM 46.9 °F - 39.0 °F 74% 29.70 in 10.0 mi SSE 9.2 mph - N/A   Overcast
3:52 AM 46.0 °F 41.9 °F 41.0 °F 83% 29.67 in 10.0 mi SE 8.1 mph - 0.02 in Rain Light Rain
4:45 AM 46.4 °F 43.5 °F 41.0 °F 81% 29.64 in 8.0 mi SE 5.8 mph - 0.04 in Rain Light Rain
4:52 AM 46.0 °F 43.1 °F 41.0 °F 83% 29.64 in 9.0 mi SE 5.8 mph - 0.05 in Rain Light Rain
5:52 AM 46.0 °F 41.0 °F 41.0 °F 83% 29.61 in 8.0 mi ESE 10.4 mph - 0.13 in Rain Light Rain
6:15 AM 46.4 °F 41.1 °F 41.0 °F 81% 29.59 in 7.0 mi East 11.5 mph - 0.01 in Rain Light Rain
6:22 AM 46.4 °F 41.1 °F 41.0 °F 81% 29.58 in 6.0 mi East 11.5 mph - 0.02 in Rain Light Rain
6:31 AM 44.6 °F 39.2 °F 41.0 °F 87% 29.58 in 8.0 mi East 10.4 mph - 0.02 in Rain Light Rain
6:52 AM 46.0 °F 41.0 °F 41.0 °F 83% 29.57 in 10.0 mi East 10.4 mph - 0.02 in   Overcast
7:52 AM 46.9 °F - 41.0 °F 80% 29.54 in 10.0 mi ESE 11.5 mph - N/A   Overcast
8:52 AM 48.2 °F - 44.6 °F 87% 29.50 in 10.0 mi SSE 15.0 mph - N/A   Overcast
9:52 AM 51.1 °F - 42.1 °F 71% 29.49 in 10.0 mi South 17.3 mph 21.9 mph N/A   Overcast
10:52 AM 52.0 °F - 42.1 °F 69% 29.52 in 10.0 mi West 18.4 mph 28.8 mph 0.01 in   Overcast
10:59 AM 51.8 °F - 42.8 °F 71% 29.51 in 10.0 mi WSW 17.3 mph 25.3 mph N/A   Mostly Cloudy
11:45 AM 53.6 °F - 41.0 °F 62% 29.53 in 10.0 mi WSW 20.7 mph - N/A   Mostly Cloudy
11:52 AM 52.0 °F - 39.9 °F 63% 29.54 in 10.0 mi WSW 19.6 mph - N/A   Mostly Cloudy
12:11 PM 53.6 °F - 37.4 °F 54% 29.54 in 10.0 mi WSW 20.7 mph 31.1 mph N/A   Partly Cloudy
12:52 PM 53.1 °F - 39.9 °F 61% 29.57 in 10.0 mi West 18.4 mph - N/A   Mostly Cloudy
1:52 PM 55.9 °F - 37.0 °F 49% 29.60 in 10.0 mi West 17.3 mph 21.9 mph N/A   Scattered Clouds
2:52 PM 55.9 °F - 32.0 °F 40% 29.61 in 10.0 mi West 18.4 mph 27.6 mph N/A   Mostly Cloudy
3:52 PM 55.9 °F - 28.9 °F 36% 29.62 in 10.0 mi WSW 24.2 mph 31.1 mph N/A   Mostly Cloudy
4:52 PM 55.9 °F - 30.0 °F 37% 29.64 in 10.0 mi WSW 17.3 mph 21.9 mph N/A   Clear
5:52 PM 54.0 °F - 30.0 °F 40% 29.65 in 10.0 mi West 10.4 mph - N/A   Clear
6:52 PM 52.0 °F - 33.1 °F 49% 29.67 in 10.0 mi WSW 11.5 mph - N/A   Mostly Cloudy
7:52 PM 50.0 °F - 34.0 °F 54% 29.68 in 10.0 mi WSW 9.2 mph - N/A   Mostly Cloudy
8:52 PM 48.9 °F - 34.0 °F 56% 29.70 in 10.0 mi West 8.1 mph - N/A   Mostly Cloudy
9:52 PM 46.0 °F 41.4 °F 30.9 °F 56% 29.72 in 10.0 mi WSW 9.2 mph - N/A   Clear
10:52 PM 44.1 °F 42.5 °F 33.1 °F 65% 29.74 in 10.0 mi SW 3.5 mph - N/A   Scattered Clouds
11:52 PM 43.0 °F 39.5 °F 28.0 °F 56% 29.75 in 10.0 mi WNW 5.8 mph - N/A   Clear